Hourly Data Report for January 08, 2018

All times are specified in Local Standard Time (LST). Add 1 hour to adjust for Daylight Saving Time where and when it is observed.

TORONTO INTL A
ONTARIO

43°40'36.000" N
79°37'50.000" W
173.40 m
6158731
71624
YYZ

Download Data

Hourly Data (January 2018)
Hourly Data Report for January 8, 2018
Temp Definition
°C
Dew Point Temp Definition
°C
Rel Hum Definition
%
Wind Dir Definition
10's deg

Wind Spd Definition
km/h
Visibility Definition
km
Stn Press Definition
kPa
Hmdx Definition


Wind Chill Definition


Weather Definition


TIME
00:00 -2.2 -8.2 64 23 23 24.1 99.39   -8 LegendNANA
01:00 -2.3 -6.9 71 22 16 24.1 99.36   -7 Cloudy
02:00 -2.5 -5.3 81 22 14 9.7 99.31   -7 Snow
03:00 -2.5 -4.8 85 21 26 6.4 99.27   -9 Snow
04:00 -2.5 -4.6 85 20 16 8.1 99.19   -8 Snow
05:00 -2.3 -4.3 86 20 14 8.1 99.10   -7 Snow
06:00 -2.3 -4.2 87 20 13 6.4 99.04   -7 Snow
07:00 -2.4 -4.0 89 20 14 1.2 98.94   -7 Snow
08:00 -1.9 -3.3 90 20 15 0.6 98.84   -7 Moderate Snow
09:00 -1.1 -2.5 90 21 21 9.7 98.80   -7 Snow
10:00 0.0 -1.8 88 21 20 12.9 98.81   -5 Rain,Snow
11:00 1.1 -0.9 86 22 24 12.9 98.80     Rain,Snow
12:00 1.2 -0.9 86 23 24 6.4 98.74     Snow
13:00 1.9 -0.9 82 26 26 12.9 98.74     Cloudy
14:00 1.8 -1.5 79 26 29 12.9 98.80     LegendNANA
15:00 1.8 -1.3 80 27 35 12.9 98.82     Rain
16:00 1.8 -1.9 76 27 26 16.1 98.84     Cloudy
17:00 1.8 -1.9 77 26 23 16.1 98.91     LegendNANA
18:00 2.0 -1.9 75 25 27 16.1 98.96     LegendNANA
19:00 2.1 -2.3 72 27 35 24.1 99.03     Cloudy
20:00 2.0 -2.6 72 26 25 24.1 99.05     LegendNANA
21:00 1.9 -2.9 71 27 22 24.1 99.10     LegendNANA
22:00 1.4 -4.0 67 28 31 24.1 99.13     Cloudy
23:00 1.0 -4.5 67 28 32 24.1 99.23     LegendNANA

Notes on Data Quality.

Legend

  • E = Estimated
  • M = Missing
  • NA = Not Available
Date modified: